Fort Myers, FL

4:24 AM EDT on September 26, 2016 (GMT -0400)
Page

Weather History for KFMY - February, 2011

Change the Weather History Date:

Tuesday, February 1, 2011

  Actual Average Record
Temperature  
Mean Temperature 70 °F 65 °F  
Max Temperature 82 °F 76 °F 86 °F (1975)
Min Temperature 57 °F 55 °F 33 °F (1909)
Degree Days  
Heating Degree Days 0 3  
Month to date heating degree days 0 3  
Since 1 July heating degree days 384 204  
Cooling Degree Days 5 3  
Month to date cooling degree days 5 3  
Year to date cooling degree days 56 86  
Growing Degree Days 19 (Base 50)    
Moisture  
Dew Point 62 °F    
Average Humidity 79    
Maximum Humidity 100    
Minimum Humidity 54    
Precipitation  
Precipitation 0.00 in 0.07 in 1.33 in (1934)
Month to date precipitation 0.00 0.07  
Year to date precipitation 3.04 2.01  
Sea Level Pressure  
Sea Level Pressure 30.06 in    
Wind  
Wind Speed 6 mph (SSE)    
Max Wind Speed 15 mph    
Max Gust Speed 21 mph    
Visibility 9 miles    
Events      
T = Trace of Precipitation, MM = Missing Value Source: NWS Daily Summary

Daily Weather History Graph

Daily Weather History Graph

Search for Another Location

Airport or City:

Trip Planner

Search our weather history database for the weather conditions in past years. The results will help you decide how hot, cold, wet, or windy it might be!

Date:

Astronomy

Feb. 01, 2011 Rise Set
Actual Time 7:12 AM EST 6:09 PM EST
Civil Twilight 6:48 AM EST 6:34 PM EST
Nautical Twilight 6:20 AM EST 7:01 PM EST
Astronomical Twilight 5:53 AM EST 7:29 PM EST
Moon 6:04 AM EST (2/1) 5:06 PM EST (2/1)
Length of Visible Light 11h 45m
Length of Day
10h 57m
Waning Crescent, 2% of the Moon is Illuminated
Feb 1
Waning Crescent
Feb 2
New
Feb 11
First Quarter
Feb 18
Full
Feb 24
Last Quarter

Hourly Weather History & Observations

Time (EST) Temp. Heat Index Dew Point Humidity Pressure Visibility Wind Dir Wind Speed Gust Speed Precip Events Conditions
12:53 AM 59.0 °F - 55.9 °F 90% 30.10 in 10.0 mi Calm Calm - N/A   Clear
1:53 AM 59.0 °F - 55.9 °F 90% 30.09 in 10.0 mi Calm Calm - N/A   Clear
2:53 AM 57.9 °F - 55.9 °F 93% 30.06 in 10.0 mi Calm Calm - N/A   Scattered Clouds
3:53 AM 60.1 °F - 57.0 °F 90% 30.05 in 10.0 mi Calm Calm - N/A   Mostly Cloudy
4:53 AM 61.0 °F - 59.0 °F 93% 30.05 in 7.0 mi ESE 3.5 mph - N/A   Mostly Cloudy
5:53 AM 62.1 °F - 60.1 °F 93% 30.06 in 6.0 mi East 3.5 mph - N/A   Mostly Cloudy
6:53 AM 62.1 °F - 60.1 °F 93% 30.07 in 5.0 mi ESE 3.5 mph - N/A   Mostly Cloudy
7:53 AM 63.0 °F - 62.1 °F 97% 30.09 in 4.0 mi ESE 3.5 mph - N/A   Partly Cloudy
8:48 AM 66.2 °F - 64.4 °F 94% 30.09 in 9.0 mi SE 8.1 mph - N/A   Partly Cloudy
8:53 AM 68.0 °F - 64.9 °F 90% 30.10 in 10.0 mi SE 6.9 mph - N/A   Partly Cloudy
9:53 AM 73.0 °F - 64.9 °F 76% 30.11 in 10.0 mi SSE 10.4 mph - N/A   Clear
11:53 AM 78.1 °F - 63.0 °F 60% 30.08 in 10.0 mi South 9.2 mph 18.4 mph N/A   Mostly Cloudy
12:53 PM 81.0 °F 82.2 °F 63.0 °F 54% 30.04 in 10.0 mi SSE 12.7 mph 16.1 mph N/A   Mostly Cloudy
1:53 PM 81.0 °F 81.9 °F 62.1 °F 52% 30.01 in 10.0 mi SSE 8.1 mph - N/A   Mostly Cloudy
2:53 PM 80.1 °F 81.5 °F 63.0 °F 56% 30.00 in 10.0 mi SSW 10.4 mph - N/A   Partly Cloudy
3:53 PM 79.0 °F - 64.0 °F 60% 30.00 in 10.0 mi South 13.8 mph - N/A   Partly Cloudy
4:53 PM 77.0 °F - 64.0 °F 64% 30.00 in 10.0 mi South 13.8 mph 18.4 mph N/A   Clear
5:53 PM 73.9 °F - 64.0 °F 71% 30.02 in 10.0 mi SSW 8.1 mph - N/A   Clear
6:53 PM 72.0 °F - 63.0 °F 73% 30.04 in 10.0 mi South 4.6 mph - N/A   Clear
7:53 PM 70.0 °F - 63.0 °F 78% 30.06 in 10.0 mi SSE 3.5 mph - N/A   Clear
8:53 PM 70.0 °F - 64.0 °F 81% 30.07 in 10.0 mi SSE 4.6 mph - N/A   Clear
9:53 PM 69.1 °F - 64.0 °F 84% 30.09 in 10.0 mi SSE 4.6 mph - N/A   Clear
10:53 PM 68.0 °F - 64.0 °F 87% 30.09 in 10.0 mi SSE 4.6 mph - N/A   Clear